Valdez, AK

5:46 PM AKST on January 18, 2017 (GMT -0900)
Valdez

Weather History for PAVD - May, 2014

Change the Weather History Date:

Thursday, May 15, 2014

  Actual Average Record
Temperature  
Mean Temperature 50 °F -  
Max Temperature 62 °F 52 °F 71 °F (1993)
Min Temperature 37 °F 38 °F 29 °F (1965)
Degree Days  
Heating Degree Days 16    
Moisture  
Dew Point 32 °F    
Average Humidity 50    
Maximum Humidity 75    
Minimum Humidity 27    
Precipitation  
Precipitation 0.00 in - - ()
Sea Level Pressure  
Sea Level Pressure 30.38 in    
Wind  
Wind Speed 3 mph (SW)    
Max Wind Speed 10 mph    
Max Gust Speed -    
Visibility 10 miles    
Events      
Averages and records for this station are not official NWS values.
T = Trace of Precipitation, MM = Missing Value Source: NWS Daily Summary

Daily Weather History Graph

Daily Weather History Graph

Search for Another Location

Airport or City:

Trip Planner

Search our weather history database for the weather conditions in past years. The results will help you decide how hot, cold, wet, or windy it might be!

Date:

Astronomy

May. 15, 2014 Rise Set
Actual Time 4:58 AM AKDT 10:26 PM AKDT
Civil Twilight 3:48 AM AKDT 11:37 PM AKDT
Nautical Twilight 2:13 AM AKDT 1:08 AM AKDT
Astronomical Twilight Sun does not rise Sun does not rise
Moon 11:42 PM AKDT (5/15) 5:59 AM AKDT (5/15)
Length of Visible Light 19h 49m
Length of Day
17h 28m
Full, 99% of the Moon is Illuminated
May 15
Full
May 21
Last Quarter
May 28
New
Jun 5
First Quarter
Jun 12
Full

Hourly Weather History & Observations

Time (AKDT) Temp. Windchill Dew Point Humidity Pressure Visibility Wind Dir Wind Speed Gust Speed Precip Events Conditions
12:16 AM 48.2 °F - 32.0 °F 54% 30.41 in 10.0 mi Calm Calm - N/A   Clear
12:36 AM 48.2 °F - 28.4 °F 46% 30.42 in 10.0 mi Calm Calm - N/A   Clear
12:56 AM 44.6 °F - 30.2 °F 57% 30.42 in 10.0 mi Calm Calm - N/A   Clear
1:16 AM 46.4 °F 43.5 °F 30.2 °F 53% 30.43 in 10.0 mi East 5.8 mph - N/A   Clear
1:36 AM 44.6 °F 42.2 °F 30.2 °F 57% 30.43 in 10.0 mi East 4.6 mph - N/A   Clear
1:56 AM 42.8 °F 41.1 °F 28.4 °F 57% 30.45 in 10.0 mi West 3.5 mph - N/A   Clear
2:16 AM 42.8 °F 41.1 °F 28.4 °F 57% 30.45 in 10.0 mi East 3.5 mph - N/A   Clear
2:36 AM 42.8 °F 41.1 °F 30.2 °F 61% 30.45 in 10.0 mi NE 3.5 mph - N/A   Clear
2:56 AM 41.0 °F - 30.2 °F 65% 30.46 in 10.0 mi Calm Calm - N/A   Clear
3:16 AM 41.0 °F 37.1 °F 30.2 °F 65% 30.46 in 10.0 mi ENE 5.8 mph - N/A   Clear
3:36 AM 41.0 °F 38.0 °F 30.2 °F 65% 30.46 in 10.0 mi ENE 4.6 mph - N/A   Clear
3:56 AM 41.0 °F 38.0 °F 30.2 °F 65% 30.46 in 10.0 mi East 4.6 mph - N/A   Clear
4:16 AM 39.2 °F - 30.2 °F 70% 30.46 in 10.0 mi Calm Calm - N/A   Clear
4:36 AM 39.2 °F - 28.4 °F 65% 30.47 in 10.0 mi Calm Calm - N/A   Clear
4:56 AM 39.2 °F 35.9 °F 28.4 °F 65% 30.47 in 10.0 mi ENE 4.6 mph - N/A   Clear
5:16 AM 39.2 °F - 28.4 °F 65% 30.47 in 10.0 mi Calm Calm - N/A   Clear
5:36 AM 37.4 °F 34.9 °F 30.2 °F 75% 30.47 in 10.0 mi East 3.5 mph - N/A   Clear
5:56 AM 37.4 °F 34.9 °F 30.2 °F 75% 30.46 in 10.0 mi ENE 3.5 mph - N/A   Clear
6:16 AM 39.2 °F 37.0 °F 30.2 °F 70% 30.46 in 10.0 mi ENE 3.5 mph - N/A   Partly Cloudy
6:36 AM 39.2 °F - 28.4 °F 65% 30.46 in 10.0 mi Calm Calm - N/A   Partly Cloudy
6:56 AM 42.8 °F - 30.2 °F 61% 30.46 in 10.0 mi Calm Calm - N/A   Scattered Clouds
7:16 AM 42.8 °F - 33.8 °F 70% 30.45 in 10.0 mi Calm Calm - N/A   Scattered Clouds
7:36 AM 44.6 °F - 33.8 °F 66% 30.46 in 10.0 mi Calm Calm - N/A   Scattered Clouds
7:56 AM 46.4 °F - 32.0 °F 57% 30.45 in 10.0 mi Calm Calm - N/A   Partly Cloudy
8:16 AM 46.4 °F - 32.0 °F 57% 30.45 in 10.0 mi Calm Calm - N/A   Partly Cloudy
8:36 AM 48.2 °F - 32.0 °F 54% 30.44 in 10.0 mi Calm Calm - N/A   Partly Cloudy
8:56 AM 50.0 °F - 33.8 °F 54% 30.44 in 10.0 mi Calm Calm - N/A   Clear
9:16 AM 51.8 °F - 30.2 °F 44% 30.44 in 10.0 mi Calm Calm - N/A   Clear
9:36 AM 53.6 °F - 32.0 °F 44% 30.43 in 10.0 mi Calm Calm - N/A   Clear
9:56 AM 53.6 °F - 33.8 °F 47% 30.43 in 10.0 mi SW 4.6 mph - N/A   Partly Cloudy
10:16 AM 53.6 °F - 30.2 °F 41% 30.42 in 10.0 mi WSW 3.5 mph - N/A   Partly Cloudy
10:36 AM 53.6 °F - 32.0 °F 44% 30.42 in 10.0 mi WSW 4.6 mph - N/A   Partly Cloudy
11:16 AM 55.4 °F - 30.2 °F 38% 30.42 in 10.0 mi WSW 5.8 mph - N/A   Scattered Clouds
11:36 AM 57.2 °F - 30.2 °F 36% 30.41 in 10.0 mi WSW 4.6 mph - N/A   Scattered Clouds
11:56 AM 57.2 °F - 30.2 °F 36% 30.40 in 10.0 mi WSW 5.8 mph - N/A   Mostly Cloudy
12:16 PM 57.2 °F - 30.2 °F 36% 30.40 in 10.0 mi SW 6.9 mph - N/A   Mostly Cloudy
12:36 PM 59.0 °F - 30.2 °F 34% 30.40 in 10.0 mi WSW 6.9 mph - N/A   Mostly Cloudy
12:56 PM 60.8 °F - 28.4 °F 29% 30.39 in 10.0 mi WSW 5.8 mph - N/A   Mostly Cloudy
1:16 PM 60.8 °F - 30.2 °F 31% 30.39 in 10.0 mi SW 6.9 mph - N/A   Mostly Cloudy
1:36 PM 60.8 °F - 28.4 °F 29% 30.38 in 10.0 mi WSW 6.9 mph - N/A   Mostly Cloudy
1:56 PM 62.6 °F - 30.2 °F 30% 30.38 in 10.0 mi West 6.9 mph - N/A   Mostly Cloudy
2:16 PM 62.6 °F - 28.4 °F 27% 30.37 in 10.0 mi WSW 9.2 mph - N/A   Mostly Cloudy
2:36 PM 62.6 °F - 30.2 °F 30% 30.37 in 10.0 mi West 9.2 mph - N/A   Mostly Cloudy
2:56 PM 60.8 °F - 30.2 °F 31% 30.36 in 10.0 mi WSW 10.4 mph - N/A   Mostly Cloudy
3:16 PM 62.6 °F - 30.2 °F 30% 30.35 in 10.0 mi West 10.4 mph - N/A   Mostly Cloudy
3:36 PM 62.6 °F - 32.0 °F 32% 30.35 in 10.0 mi WSW 9.2 mph - N/A   Mostly Cloudy
3:56 PM 62.6 °F - 33.8 °F 34% 30.34 in 10.0 mi WSW 8.1 mph - N/A   Mostly Cloudy
4:16 PM 62.6 °F - 33.8 °F 34% 30.34 in 10.0 mi WSW 9.2 mph - N/A   Mostly Cloudy
4:36 PM 60.8 °F - 35.6 °F 39% 30.33 in 10.0 mi WSW 6.9 mph - N/A   Mostly Cloudy
4:56 PM 60.8 °F - 35.6 °F 39% 30.32 in 10.0 mi WSW 6.9 mph - N/A   Mostly Cloudy
5:16 PM 60.8 °F - 35.6 °F 39% 30.32 in 10.0 mi SW 6.9 mph - N/A   Mostly Cloudy
5:36 PM 60.8 °F - 35.6 °F 39% 30.32 in 10.0 mi SW 8.1 mph - N/A   Mostly Cloudy
5:56 PM 60.8 °F - 35.6 °F 39% 30.31 in 10.0 mi WSW 4.6 mph - N/A   Mostly Cloudy
6:16 PM 62.6 °F - 33.8 °F 34% 30.30 in 10.0 mi WSW 6.9 mph - N/A   Mostly Cloudy
6:36 PM 60.8 °F - 33.8 °F 36% 30.30 in 10.0 mi WSW 5.8 mph - N/A   Mostly Cloudy
6:56 PM 60.8 °F - 33.8 °F 36% 30.29 in 10.0 mi WSW 4.6 mph - N/A   Mostly Cloudy
7:16 PM 60.8 °F - 32.0 °F 34% 30.29 in 10.0 mi WSW 6.9 mph - N/A   Mostly Cloudy
7:36 PM 60.8 °F - 30.2 °F 31% 30.29 in 10.0 mi WSW 4.6 mph - N/A   Mostly Cloudy
7:56 PM 59.0 °F - 33.8 °F 39% 30.28 in 10.0 mi WSW 3.5 mph - N/A   Mostly Cloudy
8:16 PM 57.2 °F - 37.4 °F 48% 30.28 in 10.0 mi WSW 4.6 mph - N/A   Mostly Cloudy
8:36 PM 55.4 °F - 39.2 °F 54% 30.28 in 10.0 mi SSW 3.5 mph - N/A   Mostly Cloudy
8:56 PM 53.6 °F - 41.0 °F 62% 30.28 in 10.0 mi Calm Calm - N/A   Mostly Cloudy
9:16 PM 53.6 °F - 41.0 °F 62% 30.27 in 10.0 mi Calm Calm - N/A   Mostly Cloudy
9:36 PM 51.8 °F - 42.8 °F 71% 30.27 in 10.0 mi Calm Calm - N/A   Mostly Cloudy
9:56 PM 51.8 °F - 42.8 °F 71% 30.27 in 10.0 mi Calm Calm - N/A   Mostly Cloudy
10:16 PM 51.8 °F - 37.4 °F 58% 30.27 in 10.0 mi East 3.5 mph - N/A   Clear
10:36 PM 51.8 °F - 35.6 °F 54% 30.27 in 10.0 mi Calm Calm - N/A   Clear
10:56 PM 50.0 °F - 35.6 °F 58% 30.27 in 10.0 mi Calm Calm - N/A   Clear
11:16 PM 48.2 °F - 37.4 °F 66% 30.27 in 10.0 mi Calm Calm - N/A   Clear
11:36 PM 48.2 °F - 35.6 °F 62% 30.27 in 10.0 mi NW 3.5 mph - N/A   Clear
11:56 PM 48.2 °F - 35.6 °F 62% 30.27 in 10.0 mi Calm Calm - N/A   Clear